Regional Weather Roundup
Issued by NWS

Home | Current Version | Previous Version | Graphics & Text | Print | Product List | Glossary On
Versions: 1 2 3 4 5 6 7 8 9 10 11 12 13 14 15 16 17 18 19 20 21 22 23 24 25 26 27 28 29 30 31 32 33 34 35 36 37 38 39 40 41 42 43 44 45 46 47 48 49 50
000
ASUS43 KDTX 252210
RWRMI
MICHIGAN HOURLY REGIONAL WEATHER ROUNDUP
NATIONAL WEATHER SERVICE DETROIT/PONTIAC MI
600 PM EDT SAT APR 25 2015

NOTE: "FAIR" INDICATES FEW OR NO CLOUDS BELOW 12,000 FEET WITH NO
SIGNIFICANT WEATHER AND/OR OBSTRUCTION TO VISIBILITY.

MIZ047>049-052>055-059>063-066>070-074>076-081>083-252300-
SOUTHEAST LOWER MICHIGAN

CITY           SKY/WX    TMP DP  RH WIND       PRES   REMARKS
ADRIAN         CLOUDY    47  30  51 E8        29.80F
ALMA           MOSUNNY   49  23  35 NE14G22   29.84S
ANN ARBOR      CLOUDY    51  25  36 SE3       29.79F
BAD AXE        MOSUNNY   44  22  42 NE9G17    29.87F
CARO           PTSUNNY   49  25  40 CALM      29.85R
DETROIT CITY   MOSUNNY   50  30  46 E12       29.81S
DETROIT        PTSUNNY   52  24  33 NE9       29.81S
FLINT          MOSUNNY   53  19  26 NE12G22   29.83S
GROSSE ILE     PTSUNNY   50  30  46 E8        29.79S
HILLSDALE      CLOUDY    47  28  46 E7        29.78F
HOWELL         MOSUNNY   54  23  30 NE14      29.78S

CITY           SKY/WX    TMP DP  RH WIND       PRES   REMARKS
JACKSON        PTSUNNY   50  29  44 E10       29.78F
LAMBERTVILLE   CLOUDY    45  32  61 E8        29.81F
LANSING        MOSUNNY   55  27  34 NE12      29.79F
LAPEER         FAIR      48  21  34 E7G16     29.83S
MASON          MOSUNNY   54  26  33 E7        29.78F
MONROE         CLOUDY    45  32  61 E8        29.80S
MT. CLEMENS    PTSUNNY   49  31  51 E9        29.79S
PONTIAC        PTSUNNY   51  19  28 E9        29.80R
PORT HOPE        N/A     41  29  62 N10       29.87F
PORT HURON     PTSUNNY   45  25  45 N10G17    29.84F
TRI CITIES     MOSUNNY   48  28  46 NE20      29.87R
MIDLAND        FAIR      48  24  38 NE12      29.87S
TROY           MOSUNNY   53  17  24 NE12      29.82S
SAGINAW HB     PTSUNNY   48  30  49 N18       29.85R
$$
MIZ043>046-050>051-056>058-064>065-071>073-077>080-252300-
SOUTHWEST LOWER MICHIGAN

CITY           SKY/WX    TMP DP  RH WIND       PRES   REMARKS
BATTLE CREEK   CLOUDY    51  35  54 E6        29.78F
BENTON HARBOR  CLOUDY    48  41  76 NE12G20   29.75F
BIG RAPIDS     MOSUNNY   53  21  27 SE12      29.81S
COLDWATER      CLOUDY    46  28  48 E10       29.78F
FREMONT        FAIR      55  22  27 E6        29.79F
HOLLAND        CLOUDY    56  33  42 E13       29.78F
GRAND RAPIDS   PTSUNNY   55  27  34 E13       29.78F
IONIA          FAIR      55  28  36 NE16      29.78F
KALAMAZOO      CLOUDY    51  37  58 E8        29.78F
LUDINGTON      SUNNY     51  22  32 N12       29.82R
MARSHALL       CLOUDY    48  32  53 SE7       29.78S
MOUNT PLEASANT MOSUNNY   50  17  27 NE10G17   29.85R
MUSKEGON       PTSUNNY   55  27  34 E10       29.79F
SOUTH HAVEN    CLOUDY    51  37  58 E6        29.77F
$$
MIZ016>042-252300-
NORTHERN LOWER MICHIGAN

CITY           SKY/WX    TMP DP  RH WIND       PRES   REMARKS
BEAVER ISLAND  SUNNY     49  19  30 E8        29.92S
BELLAIRE       MOSUNNY   57  17  21 NE12      29.84S
CADILLAC       PTSUNNY   54  17  23 E12       29.81S
CHARLEVOIX     SUNNY     51  20  29 NE13      29.91S
FRANKFORT      MOSUNNY   49  19  30 N6        29.85S
GAYLORD        SUNNY     50  18  28 NE14      29.85S
GRAYLING       MOSUNNY   52  19  27 NE9       29.84S
HARBOR SPRINGS SUNNY     50  21  32 NE13G20   29.89S
HOUGHTON LAKE  MOSUNNY   51  19  28 SE10      29.83S
MANISTEE       MOSUNNY   52  25  35 NW14      29.82S
OSCODA         SUNNY     45  21  39 NE8       29.89S
PELLSTON       SUNNY     51  22  31 E12G20    29.90F
ROGERS CITY    SUNNY     47  23  37 CALM      29.91F
TRAVERSE CITY  MOSUNNY   50  24  36 N10       29.84S
$$
MIZ007>008-015-252300-
EASTERN UPPER MICHIGAN

CITY           SKY/WX    TMP DP  RH WIND       PRES   REMARKS
KINROSS        SUNNY     46  21  36 N12       29.90S
MACKINAC ISLAN SUNNY     48  22  35 S5        29.91F
NEWBERRY       SUNNY     47  25  42 N12G23    29.92R
S. S. MARIE    SUNNY     45  21  38 NW16G23   29.90F
MUNISING         N/A     37  29  72 NE10      29.97S WCI  30
$$
MIZ004>006-011>014-085-252300-
CENTRAL UPPER MICHIGAN

CITY           SKY/WX    TMP DP  RH WIND       PRES   REMARKS
MANISTIQUE     SUNNY     47  24  41 S3        29.92S
ESCANABA       SUNNY     48  19  32 SE8       29.91S
MENOMINEE      MOSUNNY   45  21  39 E14       29.91S
SAWYER-GWINN   SUNNY     41  19  42 NE16G22   29.95R
$$
MIZ001>003-009>011-084-252300-
WESTERN UPPER MICHIGAN

CITY           SKY/WX    TMP DP  RH WIND       PRES   REMARKS
IRON MOUNTAIN  SUNNY     54  20  26 NE7G18    29.88R
HOUGHTON       SUNNY     43  21  41 E10       29.98S
COPPER HARBOR    N/A     37  30  75 N3        30.01F
IRONWOOD       SUNNY     48  27  43 N13       29.91S
$$

ABBREVIATIONS USED IN REMARKS
   TC - TEMPERATURE IN CELSIUS
  WCI - WIND CHILL INDEX
   HX - HEAT INDEX
  VSB - VISIBILITY



USA.gov is the U.S. government's official web portal to all federal, state and local government web resources and services.